{"data":{"norad_id":64560,"epoch":"2026-05-25T01:21:33.247584Z","epoch_age_seconds":67474,"freshness":"FRESH","line1":"1 64560U 25135AJ  26145.05663481  .00004432  00000+0  40653-3 0  9991","line2":"2 64560  97.7703 259.9312 0001227  81.9600 278.1760 14.95387032 50450","mean_motion":14.95387032,"eccentricity":0.0001227,"inclination_deg":97.7703,"raan_deg":259.9312,"arg_perigee_deg":81.96,"mean_anomaly_deg":278.176,"bstar":0.00040653,"rev_number":5045,"period_min":96.296140676978,"perigee_km":580.31779196662,"apogee_km":582.02560632139,"semimajor_km":6959.308699144,"source":"CELESTRAK","updated_at":"2026-05-25T13:38:04.617079Z"}}